This is the latest recevied weather packets stored in our database for station/object EA1IRT-1. If no packets are shown the sender has not sent any weather packets the latest 10 day(s).
| Time | Temp. | Humidity | Pressure | Rain* | Wind** | Luminosity | Snow |
|---|---|---|---|---|---|---|---|
| 1777454389 | 17.78° C | 83% | 1008.5 hPa | - | - | - | - |
| 1777453489 | 16.67° C | 87% | 1008.5 hPa | - | - | - | - |
| 1777451689 | 16.67° C | 89% | 1008.6 hPa | - | - | - | - |
| 1777447189 | 14.44° C | 100% | 1008.8 hPa | - | - | - | - |
| 1777446263 | 14.44° C | 100% | 1008.9 hPa | - | - | - | - |
| 1777445339 | 14.44° C | 100% | 1009 hPa | - | - | - | - |
| 1777444439 | 13.89° C | 100% | 1008.9 hPa | - | - | - | - |
| 1777443539 | 13.89° C | 100% | 1009 hPa | - | - | - | - |
| 1777442639 | 13.89° C | 100% | 1008.9 hPa | - | - | - | - |
| 1777441732 | 13.33° C | 100% | 1008.9 hPa | - | - | - | - |
| 1777441387 | 13.33° C | 100% | 1008.9 hPa | - | - | - | - |
| 1777440839 | 13.33° C | 100% | 1008.9 hPa | - | - | - | - |
| 1777439939 | 13.33° C | 100% | 1009 hPa | - | - | - | - |
| 1777439080 | 13.33° C | 100% | 1009.1 hPa | - | - | - | - |
| 1777439039 | 13.33° C | 100% | 1009.1 hPa | - | - | - | - |
| 1777438139 | 13.33° C | 100% | 1009.2 hPa | - | - | - | - |
| 1777437239 | 13.33° C | 100% | 1009.3 hPa | - | - | - | - |
| 1777436339 | 13.33° C | 100% | 1009.4 hPa | - | - | - | - |
| 1777435416 | 13.33° C | 100% | 1009.6 hPa | - | - | - | - |
| 1777434500 | 13.33° C | 100% | 1009.7 hPa | - | - | - | - |
| 1777433600 | 13.33° C | 100% | 1009.8 hPa | - | - | - | - |
| 1777431800 | 13.89° C | 100% | 1009.8 hPa | - | - | - | - |
| 1777430900 | 13.89° C | 100% | 1010 hPa | - | - | - | - |
| 1777430000 | 13.89° C | 100% | 1010 hPa | - | - | - | - |
| 1777429100 | 13.89° C | 100% | 1010.2 hPa | - | - | - | - |
* Rain since midnight (hover to see other rain measurements)
** Current wind speed in m/s (hover to see current wind gust speed)